Погода в Мбужи-Майи

Демократическая Республика Конго     6°09′38″S   23°33′10″E
темп.,
°C
ветер,
м/с
пор.,
м/с
влажн.,
%
обл.,
%
осадки,
мм/ч
давл.,
гПа
погр.,
м
5 марта, пт
пт501:00+21юз129199 2.8 101140
04:00+20юв1192100 1.2 100935
07:00+22ююз239299 1.9 1012158
10:00+28ю236874 0.0 1011563
13:00+32юз225345 0.1 10071594
16:00+27ю477799 2.1 1005376
19:00+24ююв378699 2.2 1009198
22:00+23ю1288100 0.0 101168
6 марта, сб
сб601:00+22ююз2391100 0.4 1010100
04:00+20ююз1294100 6.4 101055
07:00+21з1193100 9.9 101350
10:00+24зюз4783100 0.0 1013359
13:00+28зюз577198 0.6 1010946
16:00+26юз2576100 0.2 1008513
19:00+23юв2684100 0.2 1010185
22:00+22ююв1290100 0.0 101245
7 марта, вс
вс701:00+21ююв0191100 0.0 101139
04:00+21зюз118998 0.0 101137
07:00+21всв009399 1.4 101334
10:00+23сз2491100 1.3 1014215
13:00+22зсз259197 2.9 1011231
16:00+22ююз1293100 0.8 101053
19:00+21ююз4995100 0.8 1012329
22:00+20юз1193100 0.0 101343
8 марта, пн
пн801:00+20ю1294100 0.0 101158
04:00+19ю129599 0.0 101179
07:00+21юв129398 0.0 1013151
10:00+24ссз1279100 0.0 1014619
13:00+26зсз356895 0.9 10111280
16:00+24с478442 2.7 1010789
19:00+20ссв259368 3.6 1012178
22:00+20ююз1190100 0.0 101335
9 марта, вт
вт901:00+20ю1290100 0.0 101133
04:00+20ю3490100 0.0 1011107
07:00+20св2492100 0.0 1013176
10:00+25св347198 0.0 1014794
13:00+30всв125770 0.0 10101390
16:00+28ю116224 0.0 10071048
19:00+23ю228029 0.0 100940
22:00+21ю238733 0.0 101175